Snowfall_Accumulation
1.6 3.6 5.4 2.3 1.5 1.7 1.7 2.4 2.4 1.2 0.3 0.6 1.0 0.7 0.1 0.1 0.1 0.1 0.0 0.0 0.1 0.0 0.0 0.0 0.0 0.0 0.0 0.0 0.0 0.0 0.0 0.0 0.0 0.0 0.0 0.0 0.0 0.0 0.0 0.0 0.0 0.0 0.0 0.0
4.1 5.0 1.2 0.5 1.1 1.7 2.5 3.1 2.6 1.0 0.4 1.1 1.3 0.8 0.1 0.1 0.1 0.1 0.0 0.0 0.0 0.0 0.0 0.0 0.0 0.0 0.0 0.0 0.0 0.0 0.0 0.0 0.0 0.0 0.0 0.0 0.0 0.0 0.0 0.0 0.0 0.0 0.0 0.0
5.5 2.6 0.5 1.4 2.3 2.7 2.6 2.8 2.2 2.0 1.0 0.7 1.8 1.4 0.3 0.1 0.0 0.1 0.1 0.0 0.0 0.0 0.1 0.0 0.0 0.0 0.0 0.0 0.0 0.0 0.0 0.0 0.0 0.0 0.0 0.0 0.0 0.0 0.0 0.0 0.0 0.0 0.0 0.0
3.4 1.0 0.7 2.5 3.2 2.8 3.7 1.0 1.2 1.9 3.3 3.6 2.7 4.2 1.0 0.3 0.1 0.1 0.0 0.0 0.0 0.0 0.0 0.0 0.0 0.0 0.0 0.0 0.0 0.0 0.0 0.0 0.0 0.0 0.0 0.0 0.0 0.0 0.0 0.0 0.0 0.0 0.0 0.0
4.6 1.6 1.7 3.1 2.3 2.0 2.2 0.5 0.9 2.0 3.9 5.3 3.0 4.7 1.6 0.7 0.4 0.1 0.1 0.1 0.1 0.1 0.1 0.0 0.0 0.0 0.0 0.0 0.0 0.0 0.0 0.0 0.0 0.0 0.0 0.0 0.0 0.0 0.0 0.0 0.0 0.0 0.0 0.0
2.6 1.2 2.1 1.9 0.8 0.8 1.1 1.1 1.3 2.7 5.1 12.3 3.7 3.8 2.2 1.2 1.4 0.7 0.2 0.1 0.1 0.1 0.1 0.1 0.1 0.0 0.0 0.0 0.0 0.0 0.0 0.0 0.0 0.0 0.0 0.0 0.0 0.0 0.0 0.0 0.0 0.0 0.0 0.0
5.9 2.5 1.5 1.0 2.8 2.2 3.8 9.9 19.7 20.9 20.4 10.6 1.3 2.3 2.0 0.9 0.7 0.6 0.4 0.2 0.2 0.1 0.1 0.1 0.2 0.2 0.1 0.1 0.0 0.0 0.0 0.0 0.0 0.0 0.0 0.0 0.0 0.0 0.0 0.0 0.0 0.0 0.1 0.0
8.1 6.4 2.4 1.7 2.9 4.8 5.2 8.4 15.5 14.4 9.6 3.9 1.5 2.0 1.6 0.7 0.5 0.5 0.4 0.3 0.2 0.1 0.2 0.1 0.2 0.2 0.2 0.1 0.1 0.1 0.0 0.0 0.0 0.0 0.0 0.0 0.0 0.0 0.0 0.0 0.0 0.1 0.1 0.1
8.3 5.7 1.6 1.4 1.4 2.6 6.0 8.0 5.6 9.0 6.5 4.2 2.9 1.7 1.3 0.6 0.4 0.4 0.3 0.3 0.3 0.2 0.1 0.1 0.1 0.1 0.1 0.1 0.1 0.0 0.0 0.1 0.0 0.0 0.0 0.0 0.0 0.0 0.0 0.0 0.0 0.1 0.1 0.1
8.2 7.6 2.8 1.2 1.4 1.3 2.7 4.7 7.4 13.6 11.5 6.0 3.0 1.8 2.0 1.1 0.7 0.4 0.4 0.3 0.3 0.3 0.3 0.3 0.3 0.2 0.1 0.1 0.1 0.0 0.0 0.1 0.0 0.0 0.0 0.0 0.0 0.0 0.0 0.0 0.1 0.1 0.1 0.1
7.3 9.6 6.3 3.5 5.3 5.5 4.2 5.8 8.5 11.3 9.9 7.2 4.1 2.8 2.1 1.3 0.9 0.8 0.6 0.4 0.3 0.3 0.4 0.4 0.4 0.3 0.3 0.2 0.1 0.1 0.1 0.0 0.1 0.0 0.0 0.0 0.0 0.0 0.0 0.1 0.1 0.1 0.1 0.1
6.8 10.1 9.3 5.1 2.4 2.1 3.9 5.3 6.9 11.8 9.6 5.8 4.6 2.9 1.4 1.1 1.0 0.9 0.8 0.6 0.4 0.3 0.4 0.3 0.7 0.6 0.4 0.3 0.2 0.1 0.1 0.0 0.0 0.0 0.0 0.0 0.0 0.0 0.1 0.1 0.1 0.1 0.1 0.1
11.3 15.5 14.9 8.2 4.5 3.4 5.7 5.3 5.6 6.7 7.4 6.2 5.0 2.7 1.0 0.9 0.8 0.8 0.7 0.7 0.5 0.3 0.4 0.4 0.7 0.7 1.0 0.6 0.6 0.4 0.1 0.1 0.0 0.0 0.0 0.0 0.0 0.0 0.1 0.1 0.1 0.0 0.1 0.1
11.1 18.7 12.5 10.3 7.5 7.1 7.1 5.6 5.0 7.4 10.2 5.8 2.7 2.2 1.4 1.0 0.9 1.0 1.0 0.9 0.8 0.5 0.5 0.6 0.6 0.7 0.7 0.6 0.6 0.5 0.2 0.1 0.0 0.0 0.0 0.0 0.1 0.1 0.1 0.1 0.1 0.2 0.1 0.5
12.0 16.4 7.0 3.4 2.8 3.9 4.3 3.9 4.2 5.8 5.7 4.9 2.0 1.7 1.7 1.4 1.2 1.4 1.4 1.3 1.2 1.1 1.2 0.8 0.8 0.6 0.8 0.8 0.5 0.3 0.3 0.2 0.1 0.1 0.1 0.0 0.0 0.1 0.1 0.1 0.1 0.2 0.4 0.5
12.4 14.5 7.4 3.9 1.9 2.8 3.4 2.7 2.9 3.2 2.8 2.7 1.7 1.4 1.1 0.9 1.0 1.2 1.2 1.3 1.4 1.5 1.4 0.9 0.8 0.7 0.7 0.9 0.6 0.4 0.3 0.2 0.1 0.1 0.1 0.0 0.1 0.1 0.2 0.3 0.1 0.3 0.5 0.8
13.4 13.7 12.4 7.8 3.0 5.5 6.9 3.5 3.2 3.1 2.9 2.6 2.9 2.1 1.3 0.9 1.0 1.3 1.3 1.4 1.7 1.7 1.4 1.1 1.0 1.0 0.9 0.7 0.6 0.6 0.5 0.4 0.3 0.2 0.1 0.1 0.1 0.2 0.2 0.2 0.2 0.4 0.8 0.9
10.4 12.3 15.6 12.0 9.4 12.9 5.4 2.7 2.6 3.4 3.8 3.2 2.8 2.1 1.6 1.3 1.2 1.2 1.5 1.9 1.7 1.5 1.3 1.1 1.1 1.1 0.9 0.7 0.5 0.5 0.4 0.5 0.3 0.2 0.1 0.1 0.1 0.2 0.2 0.3 0.6 0.5 0.8 0.8
4.7 11.0 17.9 16.9 13.5 7.8 3.3 2.5 3.7 4.3 4.7 3.6 2.6 1.7 1.4 1.2 1.1 1.1 1.1 1.6 1.7 1.6 1.2 1.1 1.1 1.2 0.9 0.6 0.6 0.6 0.4 0.5 0.4 0.3 0.2 0.2 0.1 0.2 0.2 0.3 0.5 0.5 0.8 0.6
4.5 9.3 18.3 18.3 14.4 7.8 4.1 2.4 2.5 3.3 5.4 3.1 2.6 2.5 1.8 1.7 2.2 2.2 1.3 1.3 1.5 1.1 1.0 1.0 1.1 1.0 0.8 0.7 0.7 0.7 0.5 0.4 0.5 0.4 0.3 0.2 0.3 0.3 0.4 0.3 0.4 0.4 0.7 0.8
8.9 14.4 17.8 14.4 12.1 6.0 3.5 2.5 2.1 5.1 6.3 3.1 2.8 3.0 2.7 2.7 2.9 2.4 1.3 1.2 1.3 1.2 1.1 1.0 1.1 1.1 0.8 0.6 0.7 0.7 0.6 0.5 0.5 0.4 0.3 0.2 0.2 0.4 0.4 0.4 0.5 0.6 0.7 0.8
7.1 10.2 10.4 9.5 11.3 6.9 3.3 3.1 5.1 6.0 3.7 3.1 2.8 2.7 2.7 2.5 2.1 1.6 1.6 1.5 1.5 1.4 1.3 1.1 1.2 1.0 0.7 0.6 0.6 0.8 0.9 0.8 0.6 0.5 0.4 0.4 0.4 0.4 0.4 0.5 0.6 0.6 0.7 0.8
5.4 6.7 7.0 6.5 5.8 4.2 3.8 4.5 4.6 3.7 3.7 3.1 3.0 2.7 2.6 2.6 2.4 2.1 1.6 1.5 1.5 1.4 1.4 1.3 1.3 1.0 0.9 0.8 0.7 1.0 0.9 1.0 0.8 0.8 0.8 0.7 0.5 0.5 0.5 0.7 0.8 0.9 0.8 1.4
3.6 3.3 4.7 5.1 3.5 2.8 2.6 2.9 2.9 2.6 3.1 2.7 2.7 2.7 2.6 2.5 2.4 2.1 1.6 1.6 1.7 1.6 1.5 1.3 1.3 1.3 1.1 1.2 0.8 1.1 1.0 1.0 1.1 1.1 0.9 0.7 0.7 0.7 0.7 0.8 0.9 1.2 1.5 2.5
3.3 2.9 3.7 4.1 2.9 2.3 1.9 1.9 1.9 2.2 2.0 2.0 2.1 2.3 2.3 2.1 2.1 1.9 1.7 1.5 1.6 1.8 1.5 1.4 1.4 1.3 1.3 1.5 1.1 1.0 1.0 1.3 1.6 1.3 0.9 0.8 0.8 0.8 1.0 1.0 1.1 1.5 1.8 3.6
2.7 3.2 3.8 4.0 3.0 3.3 2.7 2.1 1.6 1.8 2.0 1.9 1.9 1.9 1.8 1.6 1.6 1.4 1.5 1.6 1.6 1.5 1.5 1.2 1.1 1.1 1.0 1.0 1.2 1.2 1.2 1.6 1.7 1.4 1.1 1.1 0.9 1.0 1.1 1.1 1.2 1.0 1.4 2.0